contact:dominique.lefevre@mio.osupytheas.fr, maurice.libes@osupytheas.fr, didier.mallarino@osupytheas.fr
Project:EMSO http://www.emso-fr.org/EMSO-France
Depth: 2436.0 m
Title:EMSO Ligure Ouest : Data MII capteur AQUADOPP
Date,Latitude,Longitude,X_East,Y_North,Z_Up,Amplitude_X,Amplitude_Y,Amplitude_Z,Batterie,SoundSpeed,Heading,Pitch,Roll,Pressure,TIS,Speed,Direction
, degrees North, degrees East, m.s-1, m.s-1,m.s-1, 1, 1, 1, Volt, m.s-1, degree, degree, degree, dbar, degree_C, m.s-1, degree
2021-05-28T00:04:03,42.805,6.029,-0.038,-0.024,-0.013,104.0,103.0,102.0,13.4,1505.2,327.8,-0.7,1.8,2470.385,13.28,0.044,237.7
2021-05-28T00:07:03,42.805,6.029,-0.021,-0.038,0.009,103.0,103.0,102.0,13.4,1505.2,328.7,-0.7,1.8,2470.339,13.28,0.043,208.9
2021-05-28T00:10:03,42.805,6.029,-0.023,-0.044,-0.04,105.0,103.0,102.0,13.4,1505.2,327.6,-0.7,1.9,2470.329,13.28,0.049,207.6
2021-05-28T00:13:03,42.805,6.029,-0.024,-0.042,-0.009,104.0,104.0,102.0,13.4,1505.2,326.1,-0.8,1.8,2470.306,13.28,0.048,209.7
2021-05-28T00:16:03,42.805,6.029,-0.023,-0.051,-0.021,104.0,103.0,102.0,13.3,1505.2,327.8,-0.8,1.8,2470.309,13.28,0.055,204.3
2021-05-28T00:19:03,42.805,6.029,-0.023,-0.05,-0.012,104.0,104.0,102.0,13.4,1505.2,324.7,-0.8,1.8,2470.35,13.28,0.055,204.7
2021-05-28T00:22:03,42.805,6.029,-0.015,-0.037,-0.013,104.0,105.0,100.0,13.4,1505.2,328.7,-0.7,1.8,2470.348,13.28,0.039,202.1
2021-05-28T00:25:03,42.805,6.029,-0.004,-0.037,-0.014,105.0,103.0,102.0,13.3,1505.2,324.6,-0.7,1.8,2470.334,13.28,0.037,186.2
2021-05-28T00:28:03,42.805,6.029,0.002,-0.029,-0.018,103.0,104.0,101.0,13.4,1505.2,327.3,-0.8,1.8,2470.381,13.28,0.029,176.1
2021-05-28T00:31:03,42.805,6.029,-0.031,-0.077,-0.049,103.0,103.0,102.0,13.3,1505.2,326.5,-0.7,1.9,2470.317,13.28,0.083,201.9
2021-05-28T00:34:03,42.805,6.029,0.006,-0.039,-0.009,104.0,103.0,101.0,13.4,1505.2,328.0,-0.7,1.8,2470.297,13.28,0.039,171.3
2021-05-28T00:37:03,42.805,6.029,-0.021,-0.055,-0.028,104.0,103.0,102.0,13.4,1505.2,326.7,-0.8,1.9,2470.313,13.28,0.058,200.9
2021-05-28T00:40:03,42.805,6.029,-0.041,-0.044,-0.024,103.0,103.0,101.0,13.4,1505.2,324.8,-0.7,1.8,2470.323,13.28,0.06,223.0
2021-05-28T00:43:03,42.805,6.029,-0.024,-0.047,-0.041,102.0,103.0,101.0,13.4,1505.2,328.3,-0.8,1.8,2470.322,13.28,0.052,207.0
2021-05-28T00:46:03,42.805,6.029,-0.003,-0.056,0.001,102.0,104.0,102.0,13.4,1505.2,326.4,-0.7,1.8,2470.347,13.28,0.056,183.1
2021-05-28T00:49:03,42.805,6.029,-0.01,-0.044,-0.015,103.0,104.0,101.0,13.4,1505.2,328.5,-0.7,1.8,2470.314,13.28,0.045,192.8
2021-05-28T00:52:03,42.805,6.029,-0.023,-0.04,0.024,104.0,103.0,102.0,13.4,1505.2,327.9,-0.8,1.8,2470.326,13.28,0.046,209.9
2021-05-28T00:55:03,42.805,6.029,-0.015,-0.032,0.006,103.0,102.0,102.0,13.3,1505.2,325.7,-0.8,1.9,2470.245,13.28,0.035,205.1
2021-05-28T00:58:03,42.805,6.029,-0.018,-0.037,-0.022,104.0,101.0,101.0,13.4,1505.2,327.8,-0.7,1.8,2470.27,13.28,0.041,205.9
2021-05-28T01:04:03,42.805,6.029,-0.02,-0.041,-0.011,104.0,103.0,101.0,13.4,1505.2,329.1,-0.8,1.8,2470.304,13.28,0.045,206.0
2021-05-28T01:07:03,42.805,6.029,-0.031,-0.028,-0.002,104.0,103.0,102.0,13.4,1505.2,328.5,-0.7,1.8,2470.258,13.28,0.041,227.9
2021-05-28T01:10:03,42.805,6.029,-0.03,-0.041,-0.031,103.0,102.0,102.0,13.4,1505.2,328.7,-0.8,1.8,2470.257,13.28,0.05,216.2
2021-05-28T01:13:03,42.805,6.029,-0.038,-0.026,-0.031,104.0,104.0,102.0,13.4,1505.2,326.1,-0.7,1.8,2470.319,13.28,0.046,235.6
2021-05-28T01:16:03,42.805,6.029,0.006,-0.041,-0.007,103.0,103.0,101.0,13.4,1505.2,328.0,-0.8,1.8,2470.292,13.28,0.041,171.7
2021-05-28T01:19:03,42.805,6.029,-0.007,-0.033,-0.036,103.0,102.0,102.0,13.3,1505.2,324.2,-0.8,1.8,2470.278,13.28,0.033,192.0
2021-05-28T01:22:03,42.805,6.029,-0.018,-0.053,-0.039,104.0,104.0,101.0,13.4,1505.2,327.0,-0.7,1.8,2470.308,13.28,0.055,198.8
2021-05-28T01:25:03,42.805,6.029,-0.027,-0.036,-0.008,105.0,101.0,102.0,13.3,1505.2,326.5,-0.8,1.8,2470.254,13.28,0.045,216.9
2021-05-28T01:28:03,42.805,6.029,-0.011,-0.021,-0.028,103.0,103.0,102.0,13.4,1505.2,329.4,-0.8,1.8,2470.247,13.28,0.023,207.6
2021-05-28T01:31:03,42.805,6.029,-0.01,-0.04,-0.023,103.0,103.0,102.0,13.4,1505.2,327.8,-0.8,1.8,2470.281,13.28,0.041,194.0
2021-05-28T01:34:03,42.805,6.029,-0.008,-0.064,-0.025,104.0,103.0,101.0,13.3,1505.2,329.1,-0.8,1.8,2470.265,13.28,0.064,187.1
2021-05-28T01:37:03,42.805,6.029,-0.015,-0.061,-0.047,102.0,104.0,101.0,13.4,1505.2,327.4,-0.8,1.8,2470.248,13.28,0.062,193.8
2021-05-28T01:40:03,42.805,6.029,-0.031,-0.04,-0.015,104.0,103.0,102.0,13.3,1505.2,325.4,-0.8,1.8,2470.248,13.28,0.05,217.8
2021-05-28T01:43:03,42.805,6.029,-0.033,-0.041,-0.031,104.0,103.0,102.0,13.4,1505.2,326.4,-0.7,1.8,2470.281,13.28,0.052,218.8
2021-05-28T01:46:03,42.805,6.029,-0.018,-0.06,-0.04,104.0,103.0,102.0,13.4,1505.2,328.6,-0.8,1.8,2470.244,13.28,0.062,196.7
2021-05-28T01:49:03,42.805,6.029,-0.005,-0.04,-0.01,103.0,103.0,102.0,13.4,1505.2,327.9,-0.8,1.8,2470.248,13.28,0.04,187.1
2021-05-28T01:52:03,42.805,6.029,-0.001,-0.047,-0.036,104.0,102.0,102.0,13.4,1505.2,329.6,-0.8,1.8,2470.247,13.28,0.047,181.2
2021-05-28T01:55:03,42.805,6.029,-0.016,-0.046,-0.014,103.0,103.0,101.0,13.3,1505.2,324.9,-0.8,1.8,2470.226,13.28,0.048,199.2
2021-05-28T01:58:03,42.805,6.029,-0.025,-0.044,-0.022,103.0,104.0,102.0,13.3,1505.2,327.8,-0.8,1.9,2470.283,13.28,0.05,209.6
2021-05-28T02:04:03,42.805,6.029,-0.012,-0.027,-0.007,103.0,103.0,102.0,13.4,1505.2,325.9,-0.8,1.8,2470.278,13.28,0.029,204.0
2021-05-28T02:07:03,42.805,6.029,-0.019,-0.032,-0.028,103.0,103.0,102.0,13.4,1505.2,326.3,-0.8,1.8,2470.228,13.28,0.037,210.7
2021-05-28T02:10:03,42.805,6.029,-0.028,-0.053,-0.032,103.0,103.0,102.0,13.3,1505.2,327.7,-0.8,1.8,2470.268,13.28,0.059,207.9
2021-05-28T02:13:03,42.805,6.029,-0.028,-0.052,-0.043,105.0,102.0,102.0,13.3,1505.2,325.6,-0.8,1.8,2470.195,13.28,0.059,208.3
2021-05-28T02:16:03,42.805,6.029,-0.017,-0.032,-0.024,104.0,103.0,102.0,13.3,1505.2,326.4,-0.8,1.8,2470.241,13.28,0.036,208.0
2021-05-28T02:19:03,42.805,6.029,-0.015,-0.038,0.002,102.0,104.0,101.0,13.4,1505.2,324.0,-0.7,1.8,2470.279,13.28,0.04,201.5
2021-05-28T02:22:03,42.805,6.029,-0.037,-0.047,-0.01,103.0,104.0,100.0,13.3,1505.2,327.0,-0.7,1.8,2470.244,13.28,0.059,218.2
2021-05-28T02:25:03,42.805,6.029,-0.011,-0.028,-0.024,102.0,102.0,101.0,13.3,1505.2,324.4,-0.8,1.8,2470.259,13.28,0.03,201.4
2021-05-28T02:28:03,42.805,6.029,-0.008,-0.047,-0.021,103.0,102.0,102.0,13.4,1505.2,326.1,-0.7,1.9,2470.258,13.28,0.047,189.7
2021-05-28T02:31:03,42.805,6.029,-0.02,-0.036,-0.03,103.0,101.0,101.0,13.3,1505.2,327.9,-0.8,1.8,2470.219,13.28,0.041,209.1
2021-05-28T02:34:03,42.805,6.029,-0.02,-0.046,0.001,103.0,102.0,102.0,13.4,1505.2,327.0,-0.7,1.8,2470.25,13.28,0.05,203.5
2021-05-28T02:37:03,42.805,6.029,-0.026,-0.042,-0.054,103.0,102.0,101.0,13.4,1505.2,328.3,-0.8,1.8,2470.226,13.28,0.049,211.8
2021-05-28T02:40:03,42.805,6.029,-0.031,-0.027,0.002,102.0,102.0,101.0,13.3,1505.2,328.2,-0.8,1.8,2470.231,13.28,0.041,228.9
2021-05-28T02:43:03,42.805,6.029,-0.019,-0.047,-0.028,101.0,104.0,102.0,13.4,1505.2,329.8,-0.7,1.8,2470.254,13.28,0.05,202.0
2021-05-28T02:46:03,42.805,6.029,-0.028,-0.053,-0.025,101.0,101.0,102.0,13.4,1505.2,324.8,-0.8,1.9,2470.257,13.28,0.059,207.9
2021-05-28T02:49:03,42.805,6.029,-0.01,-0.028,-0.018,101.0,102.0,101.0,13.3,1505.2,325.0,-0.8,1.8,2470.246,13.28,0.029,199.6
2021-05-28T02:52:03,42.805,6.029,-0.019,-0.044,-0.024,101.0,102.0,103.0,13.4,1505.2,328.6,-0.8,1.9,2470.249,13.28,0.047,203.4
2021-05-28T02:55:03,42.805,6.029,-0.011,-0.02,-0.033,103.0,102.0,101.0,13.4,1505.2,325.1,-0.8,1.8,2470.205,13.28,0.022,208.8
2021-05-28T02:58:03,42.805,6.029,-0.023,-0.025,-0.01,102.0,102.0,102.0,13.3,1505.2,329.6,-0.8,1.8,2470.266,13.28,0.033,222.6
2021-05-28T03:04:03,42.805,6.029,-0.021,-0.053,-0.047,103.0,103.0,100.0,13.4,1505.2,328.7,-0.7,1.8,2470.263,13.28,0.057,201.6
2021-05-28T03:07:03,42.805,6.029,-0.029,-0.053,-0.043,103.0,101.0,101.0,13.4,1505.2,327.2,-0.8,1.8,2470.249,13.28,0.06,208.7
2021-05-28T03:10:03,42.805,6.029,-0.015,-0.039,-0.031,102.0,101.0,101.0,13.3,1505.2,326.0,-0.7,1.8,2470.259,13.28,0.041,201.0
2021-05-28T03:13:03,42.805,6.029,0.0,-0.05,-0.001,101.0,102.0,101.0,13.4,1505.2,326.0,-0.7,1.8,2470.258,13.28,0.05,180.0
2021-05-28T03:16:03,42.805,6.029,-0.012,-0.022,-0.015,101.0,103.0,101.0,13.4,1505.2,327.1,-0.7,1.8,2470.24,13.28,0.025,208.6
2021-05-28T03:19:03,42.805,6.029,-0.005,-0.049,-0.024,103.0,102.0,100.0,13.4,1505.2,327.9,-0.7,1.8,2470.234,13.28,0.049,185.8
2021-05-28T03:22:03,42.805,6.029,-0.002,-0.032,-0.035,102.0,102.0,101.0,13.3,1505.2,324.4,-0.8,1.9,2470.235,13.28,0.032,183.6
2021-05-28T03:25:03,42.805,6.029,-0.013,-0.026,-0.022,101.0,101.0,101.0,13.4,1505.2,329.0,-0.7,1.8,2470.223,13.28,0.029,206.6
2021-05-28T03:28:03,42.805,6.029,-0.022,-0.036,-0.015,100.0,103.0,100.0,13.3,1505.2,327.4,-0.8,1.8,2470.253,13.28,0.042,211.4
2021-05-28T03:31:03,42.805,6.029,-0.027,-0.048,-0.072,101.0,101.0,102.0,13.3,1505.2,328.3,-0.7,1.8,2470.196,13.28,0.055,209.4
2021-05-28T03:34:03,42.805,6.029,-0.019,-0.031,-0.044,102.0,101.0,101.0,13.3,1505.2,329.1,-0.7,1.8,2470.226,13.28,0.036,211.5
2021-05-28T03:37:03,42.805,6.029,0.004,-0.036,0.016,101.0,100.0,101.0,13.4,1505.2,324.9,-0.7,1.8,2470.217,13.28,0.036,173.7
2021-05-28T03:40:03,42.805,6.029,-0.015,-0.037,-0.036,101.0,102.0,100.0,13.4,1505.2,326.9,-0.7,1.8,2470.239,13.28,0.039,202.1
2021-05-28T03:43:03,42.805,6.029,-0.039,-0.029,0.002,100.0,102.0,100.0,13.3,1505.2,325.7,-0.7,1.9,2470.263,13.28,0.048,233.4
2021-05-28T03:46:03,42.805,6.029,-0.016,-0.018,0.0,101.0,102.0,100.0,13.3,1505.2,327.7,-0.7,1.8,2470.268,13.28,0.024,221.6
2021-05-28T03:49:03,42.805,6.029,-0.025,-0.019,0.008,100.0,104.0,100.0,13.4,1505.2,325.3,-0.8,1.8,2470.279,13.28,0.031,232.8
2021-05-28T03:52:03,42.805,6.029,-0.047,-0.057,-0.026,101.0,101.0,101.0,13.4,1505.2,326.8,-0.8,1.8,2470.237,13.28,0.073,219.5
2021-05-28T03:55:03,42.805,6.029,-0.009,-0.03,-0.018,101.0,101.0,101.0,13.3,1505.2,326.2,-0.8,1.8,2470.247,13.28,0.031,196.7
2021-05-28T03:58:03,42.805,6.029,-0.022,-0.04,-0.032,101.0,100.0,101.0,13.4,1505.2,325.8,-0.7,1.8,2470.234,13.28,0.045,208.8
2021-05-28T04:04:03,42.805,6.029,-0.029,-0.023,0.015,101.0,101.0,100.0,13.3,1505.2,328.9,-0.8,1.8,2470.267,13.28,0.037,231.6
2021-05-28T04:07:03,42.805,6.029,-0.033,-0.015,-0.057,101.0,102.0,99.0,13.4,1505.2,327.7,-0.8,1.8,2470.272,13.28,0.036,245.6
2021-05-28T04:10:03,42.805,6.029,-0.014,-0.04,-0.029,100.0,99.0,100.0,13.4,1505.2,327.7,-0.8,1.8,2470.243,13.28,0.042,199.3
2021-05-28T04:13:03,42.805,6.029,-0.028,-0.058,-0.01,102.0,100.0,100.0,13.4,1505.2,326.7,-0.7,1.8,2470.253,13.28,0.064,205.8
2021-05-28T04:16:03,42.805,6.029,-0.031,-0.037,-0.004,102.0,100.0,101.0,13.3,1505.2,327.4,-0.8,1.9,2470.247,13.28,0.048,220.0
2021-05-28T04:19:03,42.805,6.029,-0.008,-0.031,-0.001,101.0,102.0,99.0,13.3,1505.2,327.9,-0.8,1.8,2470.247,13.28,0.032,194.5
2021-05-28T04:22:03,42.805,6.029,-0.014,-0.044,-0.02,100.0,101.0,101.0,13.3,1505.2,328.8,-0.7,1.8,2470.233,13.28,0.046,197.6
2021-05-28T04:25:03,42.805,6.029,-0.032,-0.049,-0.053,100.0,102.0,100.0,13.3,1505.2,329.1,-0.7,1.8,2470.255,13.28,0.058,213.2
2021-05-28T04:28:03,42.805,6.029,-0.021,-0.053,-0.027,101.0,101.0,100.0,13.3,1505.2,324.9,-0.7,1.8,2470.28,13.28,0.057,201.6
2021-05-28T04:31:03,42.805,6.029,0.016,-0.054,-0.063,102.0,101.0,101.0,13.4,1505.2,327.5,-0.8,1.8,2470.27,13.28,0.056,163.5
2021-05-28T04:34:03,42.805,6.029,-0.015,-0.019,-0.022,101.0,102.0,101.0,13.4,1505.2,327.3,-0.8,1.8,2470.28,13.28,0.024,218.3
2021-05-28T04:37:03,42.805,6.029,-0.031,-0.047,-0.019,101.0,100.0,100.0,13.3,1505.2,327.1,-0.8,1.9,2470.322,13.28,0.056,213.4
2021-05-28T04:40:03,42.805,6.029,-0.014,-0.054,-0.034,102.0,102.0,100.0,13.4,1505.2,328.5,-0.7,1.8,2470.282,13.28,0.055,194.5
2021-05-28T04:43:03,42.805,6.029,-0.012,-0.04,-0.003,102.0,102.0,101.0,13.3,1505.2,327.9,-0.8,1.8,2470.336,13.28,0.041,196.7
2021-05-28T04:46:03,42.805,6.029,-0.02,-0.021,-0.043,102.0,101.0,100.0,13.4,1505.2,327.1,-0.8,1.8,2470.276,13.28,0.028,223.6
2021-05-28T04:49:03,42.805,6.029,-0.034,-0.013,-0.021,101.0,101.0,101.0,13.4,1505.2,329.1,-0.7,1.8,2470.289,13.28,0.036,249.1
2021-05-28T04:52:03,42.805,6.029,-0.031,-0.027,-0.038,102.0,100.0,101.0,13.3,1505.2,325.3,-0.8,1.8,2470.275,13.28,0.041,228.9
2021-05-28T04:55:03,42.805,6.029,-0.017,-0.051,-0.035,102.0,101.0,101.0,13.4,1505.2,327.9,-0.7,1.8,2470.269,13.28,0.053,198.4
2021-05-28T04:58:03,42.805,6.029,-0.02,-0.043,-0.008,102.0,100.0,101.0,13.4,1505.2,325.7,-0.7,1.8,2470.322,13.28,0.047,204.9
2021-05-28T05:04:03,42.805,6.029,-0.033,-0.037,-0.014,102.0,101.0,101.0,13.3,1505.2,327.9,-0.7,1.8,2470.305,13.28,0.049,221.7
2021-05-28T05:07:03,42.805,6.029,-0.021,-0.045,-0.031,101.0,102.0,100.0,13.4,1505.2,328.5,-0.7,1.8,2470.257,13.28,0.049,205.0
2021-05-28T05:10:03,42.805,6.029,-0.007,-0.037,-0.025,102.0,101.0,100.0,13.4,1505.2,327.4,-0.8,1.8,2470.277,13.28,0.037,190.7
2021-05-28T05:13:03,42.805,6.029,-0.01,-0.036,-0.028,102.0,102.0,100.0,13.4,1505.2,326.4,-0.7,1.8,2470.358,13.28,0.037,195.5
2021-05-28T05:16:03,42.805,6.029,-0.027,-0.034,-0.014,102.0,104.0,101.0,13.4,1505.2,329.3,-0.8,1.8,2470.338,13.28,0.043,218.5
2021-05-28T05:19:03,42.805,6.029,-0.026,-0.025,-0.02,103.0,101.0,101.0,13.3,1505.2,326.0,-0.8,1.8,2470.307,13.28,0.036,226.1
2021-05-28T05:22:03,42.805,6.029,-0.022,-0.053,-0.025,102.0,101.0,102.0,13.4,1505.2,328.4,-0.7,1.8,2470.337,13.28,0.057,202.5
2021-05-28T05:25:03,42.805,6.029,-0.041,-0.042,-0.031,102.0,100.0,101.0,13.4,1505.2,325.9,-0.8,1.8,2470.301,13.28,0.058,224.3
2021-05-28T05:28:03,42.805,6.029,-0.029,-0.033,-0.016,102.0,103.0,101.0,13.4,1505.2,329.6,-0.7,1.8,2470.353,13.28,0.043,221.3
2021-05-28T05:31:03,42.805,6.029,-0.017,-0.039,-0.05,104.0,102.0,101.0,13.3,1505.2,327.8,-0.7,1.8,2470.3,13.28,0.042,203.5
2021-05-28T05:34:03,42.805,6.029,-0.021,-0.037,-0.04,103.0,102.0,101.0,13.4,1505.2,325.5,-0.7,1.8,2470.317,13.28,0.042,209.6
2021-05-28T05:37:03,42.805,6.029,-0.024,-0.024,-0.021,102.0,102.0,102.0,13.4,1505.2,328.2,-0.7,1.8,2470.339,13.28,0.033,225.0
2021-05-28T05:40:03,42.805,6.029,-0.014,-0.072,-0.038,103.0,100.0,102.0,13.3,1505.2,324.8,-0.8,1.8,2470.335,13.28,0.073,191.0
2021-05-28T05:43:03,42.805,6.029,-0.014,-0.033,-0.013,103.0,102.0,101.0,13.3,1505.2,328.0,-0.7,1.8,2470.296,13.28,0.035,203.0
2021-05-28T05:46:03,42.805,6.029,-0.023,-0.035,-0.032,101.0,101.0,101.0,13.4,1505.2,329.3,-0.7,1.8,2470.333,13.28,0.041,213.3
2021-05-28T05:49:03,42.805,6.029,0.0,-0.046,-0.006,102.0,101.0,101.0,13.4,1505.2,324.7,-0.7,1.8,2470.339,13.28,0.046,180.0
2021-05-28T05:52:03,42.805,6.029,-0.028,-0.029,-0.021,102.0,102.0,101.0,13.4,1505.2,324.1,-0.8,1.8,2470.351,13.28,0.04,224.0
2021-05-28T05:55:03,42.805,6.029,-0.034,-0.026,-0.046,101.0,102.0,102.0,13.4,1505.2,328.4,-0.7,1.8,2470.337,13.28,0.042,232.6
2021-05-28T05:58:03,42.805,6.029,0.0,-0.031,0.012,102.0,101.0,101.0,13.4,1505.2,325.6,-0.7,1.8,2470.354,13.28,0.03,180.0
2021-05-28T06:04:03,42.805,6.029,-0.015,-0.027,-0.014,102.0,101.0,101.0,13.4,1505.2,324.7,-0.8,1.8,2470.39,13.28,0.03,209.1
2021-05-28T06:07:03,42.805,6.029,-0.022,-0.025,-0.003,101.0,102.0,101.0,13.4,1505.2,326.3,-0.8,1.9,2470.341,13.28,0.033,221.3
2021-05-28T06:10:03,42.805,6.029,-0.012,-0.015,0.007,101.0,102.0,102.0,13.4,1505.2,325.9,-0.8,1.8,2470.37,13.28,0.019,218.7
2021-05-28T06:13:03,42.805,6.029,-0.025,-0.033,-0.017,102.0,102.0,101.0,13.4,1505.2,325.9,-0.7,1.8,2470.346,13.28,0.041,217.2
2021-05-28T06:16:03,42.805,6.029,-0.027,-0.047,-0.035,102.0,101.0,101.0,13.3,1505.2,327.2,-0.7,1.9,2470.402,13.28,0.054,209.9
2021-05-28T06:19:03,42.805,6.029,-0.012,-0.052,-0.008,102.0,102.0,101.0,13.4,1505.2,328.6,-0.7,1.8,2470.386,13.28,0.053,193.0
2021-05-28T06:22:03,42.805,6.029,0.001,-0.027,-0.011,102.0,103.0,102.0,13.4,1505.2,325.7,-0.7,1.8,2470.388,13.28,0.027,177.9
2021-05-28T06:25:03,42.805,6.029,-0.018,-0.043,-0.012,103.0,102.0,101.0,13.4,1505.2,327.4,-0.7,1.8,2470.372,13.28,0.046,202.7
2021-05-28T06:28:03,42.805,6.029,-0.009,-0.015,-0.004,102.0,101.0,101.0,13.4,1505.2,330.1,-0.7,1.8,2470.389,13.28,0.017,211.0
2021-05-28T06:31:03,42.805,6.029,0.003,-0.04,-0.016,103.0,103.0,100.0,13.4,1505.2,324.8,-0.8,1.8,2470.406,13.28,0.04,175.7
2021-05-28T06:34:03,42.805,6.029,-0.017,-0.04,-0.022,101.0,102.0,102.0,13.4,1505.2,326.7,-0.8,1.8,2470.375,13.28,0.043,203.0
2021-05-28T06:37:03,42.805,6.029,-0.014,-0.045,-0.029,102.0,102.0,101.0,13.4,1505.2,327.7,-0.7,1.8,2470.379,13.28,0.047,197.3
2021-05-28T06:40:03,42.805,6.029,-0.008,-0.051,-0.028,102.0,102.0,101.0,13.4,1505.2,327.2,-0.7,1.8,2470.431,13.28,0.051,188.9
2021-05-28T06:43:03,42.805,6.029,0.005,-0.048,-0.024,102.0,101.0,101.0,13.4,1505.2,328.1,-0.8,1.8,2470.368,13.28,0.048,174.1
2021-05-28T06:46:03,42.805,6.029,-0.009,-0.049,-0.013,102.0,102.0,101.0,13.3,1505.2,327.8,-0.8,1.8,2470.398,13.28,0.049,190.4
2021-05-28T06:49:03,42.805,6.029,-0.026,-0.039,-0.026,102.0,103.0,101.0,13.4,1505.2,325.6,-0.8,1.8,2470.399,13.28,0.046,213.7
2021-05-28T06:52:03,42.805,6.029,-0.006,-0.054,-0.016,100.0,102.0,102.0,13.4,1505.2,325.1,-0.8,1.8,2470.394,13.28,0.054,186.3
2021-05-28T06:55:03,42.805,6.029,-0.012,-0.036,-0.011,102.0,102.0,101.0,13.4,1505.2,327.7,-0.8,1.8,2470.401,13.28,0.037,198.4
2021-05-28T06:58:03,42.805,6.029,-0.024,-0.029,-0.03,104.0,102.0,101.0,13.4,1505.2,327.8,-0.7,1.8,2470.408,13.28,0.037,219.6
2021-05-28T07:04:03,42.805,6.029,-0.036,-0.025,-0.017,103.0,102.0,100.0,13.4,1505.2,329.8,-0.7,1.8,2470.403,13.28,0.043,235.2
2021-05-28T07:07:03,42.805,6.029,0.004,-0.025,0.001,102.0,102.0,101.0,13.4,1505.2,329.8,-0.8,1.8,2470.415,13.28,0.025,170.9
2021-05-28T07:10:03,42.805,6.029,-0.022,-0.045,-0.021,102.0,102.0,100.0,13.4,1505.2,327.6,-0.8,1.8,2470.4,13.28,0.05,206.1
2021-05-28T07:13:03,42.805,6.029,-0.031,-0.043,-0.037,101.0,101.0,101.0,13.4,1505.2,324.7,-0.8,1.8,2470.379,13.28,0.053,215.8
2021-05-28T07:16:03,42.805,6.029,-0.001,-0.051,-0.042,102.0,103.0,100.0,13.4,1505.2,324.5,-0.8,1.8,2470.401,13.28,0.051,181.1
2021-05-28T07:19:03,42.805,6.029,-0.032,-0.045,-0.005,102.0,101.0,102.0,13.4,1505.2,325.9,-0.8,1.8,2470.395,13.28,0.055,215.4
2021-05-28T07:22:03,42.805,6.029,-0.021,-0.026,-0.026,103.0,102.0,102.0,13.4,1505.2,327.0,-0.7,1.8,2470.43,13.28,0.033,218.9
2021-05-28T07:25:03,42.805,6.029,-0.018,-0.02,0.0,102.0,101.0,102.0,13.3,1505.2,327.8,-0.7,1.8,2470.433,13.28,0.026,222.0
2021-05-28T07:28:03,42.805,6.029,0.017,-0.044,-0.03,102.0,101.0,101.0,13.4,1505.2,325.6,-0.8,1.8,2470.373,13.28,0.047,158.9
2021-05-28T07:31:03,42.805,6.029,0.012,-0.045,-0.018,102.0,102.0,100.0,13.4,1505.2,325.6,-0.8,1.8,2470.393,13.28,0.046,165.1
2021-05-28T07:34:03,42.805,6.029,-0.025,-0.043,-0.02,102.0,101.0,101.0,13.3,1505.2,325.7,-0.8,1.8,2470.411,13.28,0.049,210.2
2021-05-28T07:37:03,42.805,6.029,-0.019,-0.04,-0.051,102.0,102.0,101.0,13.4,1505.2,328.7,-0.8,1.8,2470.348,13.28,0.044,205.4
2021-05-28T07:40:03,42.805,6.029,0.002,-0.03,-0.019,102.0,102.0,101.0,13.3,1505.2,325.1,-0.8,1.8,2470.39,13.28,0.03,176.2
2021-05-28T07:43:03,42.805,6.029,-0.017,-0.035,-0.015,103.0,102.0,101.0,13.4,1505.2,324.7,-0.7,1.8,2470.407,13.28,0.038,205.9
2021-05-28T07:46:03,42.805,6.029,-0.01,-0.038,-0.002,102.0,102.0,101.0,13.3,1505.2,326.2,-0.7,1.8,2470.428,13.28,0.039,194.7
2021-05-28T07:49:03,42.805,6.029,-0.01,-0.037,-0.023,103.0,102.0,101.0,13.3,1505.2,328.6,-0.8,1.8,2470.432,13.28,0.038,195.1
2021-05-28T07:52:03,42.805,6.029,-0.004,-0.06,-0.057,102.0,103.0,102.0,13.4,1505.2,328.2,-0.7,1.8,2470.36,13.28,0.06,183.8
2021-05-28T07:55:03,42.805,6.029,-0.023,-0.026,-0.005,102.0,102.0,102.0,13.3,1505.2,328.1,-0.7,1.8,2470.399,13.28,0.034,221.5
2021-05-28T07:58:03,42.805,6.029,-0.012,-0.039,-0.029,104.0,101.0,101.0,13.4,1505.2,328.0,-0.8,1.8,2470.346,13.28,0.04,197.1
2021-05-28T08:04:03,42.805,6.029,0.001,-0.043,-0.017,102.0,102.0,101.0,13.4,1505.2,327.4,-0.8,1.8,2470.415,13.28,0.043,178.7
2021-05-28T08:07:03,42.805,6.029,-0.015,-0.061,-0.038,103.0,102.0,101.0,13.4,1505.2,329.0,-0.8,1.8,2470.345,13.28,0.062,193.8
2021-05-28T08:10:03,42.805,6.029,-0.014,-0.064,-0.048,101.0,102.0,102.0,13.3,1505.2,327.7,-0.8,1.8,2470.375,13.28,0.065,192.3
2021-05-28T08:13:03,42.805,6.029,-0.032,-0.03,-0.034,103.0,102.0,101.0,13.4,1505.2,326.4,-0.8,1.8,2470.422,13.28,0.043,226.9
2021-05-28T08:16:03,42.805,6.029,-0.015,-0.041,-0.02,103.0,103.0,101.0,13.4,1505.2,329.3,-0.8,1.8,2470.416,13.28,0.043,200.1
2021-05-28T08:19:03,42.805,6.029,-0.01,-0.032,-0.017,102.0,103.0,101.0,13.3,1505.2,328.0,-0.8,1.8,2470.393,13.28,0.033,197.4
2021-05-28T08:22:03,42.805,6.029,-0.039,-0.03,0.004,102.0,103.0,101.0,13.3,1505.2,326.4,-0.8,1.8,2470.394,13.28,0.049,232.4
2021-05-28T08:25:03,42.805,6.029,-0.019,-0.049,-0.006,102.0,103.0,101.0,13.3,1505.2,327.7,-0.7,1.8,2470.415,13.28,0.052,201.2
2021-05-28T08:28:03,42.805,6.029,-0.01,-0.025,-0.004,104.0,102.0,102.0,13.4,1505.2,326.1,-0.8,1.8,2470.41,13.28,0.026,201.8
2021-05-28T08:31:03,42.805,6.029,-0.027,-0.024,-0.013,102.0,102.0,102.0,13.4,1505.2,328.3,-0.7,1.8,2470.385,13.28,0.036,228.4
2021-05-28T08:34:03,42.805,6.029,-0.016,-0.019,-0.023,102.0,103.0,102.0,13.4,1505.2,327.7,-0.8,1.8,2470.403,13.28,0.024,220.1
2021-05-28T08:37:03,42.805,6.029,-0.003,-0.027,-0.041,103.0,103.0,101.0,13.3,1505.2,329.7,-0.7,1.8,2470.399,13.28,0.027,186.3
2021-05-28T08:40:03,42.805,6.029,-0.009,-0.033,-0.018,103.0,102.0,101.0,13.4,1505.2,328.3,-0.8,1.8,2470.351,13.28,0.034,195.3
2021-05-28T08:43:03,42.805,6.029,-0.022,-0.047,0.008,103.0,103.0,101.0,13.4,1505.2,329.3,-0.8,1.8,2470.368,13.28,0.051,205.1
2021-05-28T08:46:03,42.805,6.029,-0.008,-0.023,-0.013,102.0,102.0,102.0,13.4,1505.2,325.3,-0.8,1.8,2470.395,13.28,0.024,199.2
2021-05-28T08:49:03,42.805,6.029,-0.031,-0.024,-0.034,103.0,102.0,101.0,13.4,1505.2,327.4,-0.7,1.8,2470.353,13.28,0.039,232.3
2021-05-28T08:52:03,42.805,6.029,-0.016,-0.042,0.0,103.0,103.0,102.0,13.4,1505.2,327.8,-0.7,1.8,2470.367,13.28,0.044,200.9
2021-05-28T08:55:03,42.805,6.029,-0.015,-0.043,-0.001,103.0,102.0,101.0,13.4,1505.2,327.9,-0.8,1.9,2470.346,13.28,0.045,199.2
2021-05-28T08:58:03,42.805,6.029,-0.044,-0.015,-0.002,103.0,102.0,102.0,13.4,1505.2,328.3,-0.8,1.8,2470.405,13.28,0.046,251.2
2021-05-28T09:04:03,42.805,6.029,-0.022,-0.041,-0.013,103.0,104.0,102.0,13.4,1505.2,325.7,-0.8,1.8,2470.404,13.28,0.046,208.2
2021-05-28T09:07:03,42.805,6.029,-0.015,-0.029,-0.016,103.0,103.0,101.0,13.4,1505.2,326.1,-0.8,1.8,2470.369,13.28,0.032,207.4
2021-05-28T09:10:03,42.805,6.029,-0.002,-0.036,-0.014,102.0,103.0,102.0,13.4,1505.2,328.2,-0.8,1.8,2470.367,13.28,0.036,183.2
2021-05-28T09:13:03,42.805,6.029,-0.019,-0.032,0.017,103.0,103.0,101.0,13.4,1505.2,328.9,-0.8,1.8,2470.411,13.28,0.037,210.7
2021-05-28T09:16:03,42.805,6.029,-0.003,-0.045,-0.008,104.0,103.0,101.0,13.4,1505.2,324.4,-0.7,1.9,2470.387,13.28,0.045,183.8
2021-05-28T09:19:03,42.805,6.029,-0.017,-0.038,-0.011,102.0,104.0,102.0,13.3,1505.2,326.8,-0.7,1.8,2470.361,13.28,0.041,204.1
2021-05-28T09:22:03,42.805,6.029,-0.031,-0.035,-0.039,103.0,103.0,101.0,13.4,1505.2,327.7,-0.8,1.8,2470.378,13.28,0.046,221.5
2021-05-28T09:25:03,42.805,6.029,-0.013,-0.04,-0.003,102.0,103.0,102.0,13.4,1505.2,328.6,-0.8,1.8,2470.359,13.28,0.042,198.0
2021-05-28T09:28:03,42.805,6.029,-0.007,-0.053,-0.014,103.0,103.0,102.0,13.4,1505.2,324.0,-0.8,1.8,2470.362,13.28,0.053,187.5
2021-05-28T09:31:03,42.805,6.029,-0.01,-0.046,-0.01,101.0,103.0,102.0,13.3,1505.2,325.0,-0.8,1.8,2470.364,13.28,0.047,192.3
2021-05-28T09:34:03,42.805,6.029,-0.005,-0.045,-0.027,102.0,102.0,102.0,13.4,1505.2,326.8,-0.8,1.8,2470.351,13.28,0.045,186.3
2021-05-28T09:37:03,42.805,6.029,0.0,-0.04,-0.01,102.0,103.0,101.0,13.4,1505.2,328.1,-0.7,1.8,2470.37,13.28,0.04,180.0
2021-05-28T09:40:03,42.805,6.029,-0.009,-0.029,-0.013,103.0,101.0,101.0,13.3,1505.2,326.6,-0.8,1.8,2470.365,13.28,0.03,197.2
2021-05-28T09:43:03,42.805,6.029,-0.01,-0.033,-0.004,103.0,103.0,100.0,13.4,1505.2,326.3,-0.8,1.8,2470.356,13.28,0.034,196.9
2021-05-28T09:46:03,42.805,6.029,-0.005,-0.028,-0.026,102.0,102.0,101.0,13.3,1505.2,327.5,-0.8,1.8,2470.375,13.28,0.028,190.1
2021-05-28T09:49:03,42.805,6.029,-0.002,-0.05,0.0,103.0,102.0,101.0,13.4,1505.2,327.4,-0.8,1.8,2470.377,13.28,0.05,182.3